Reflectivity
-20 -16 13 -0 7 30 32 17 9 -20 8 12 15 26 16 15 6 -20 -2 1 31 24 8 3 -20 -20 -19 14 -20 -20 -20 -20 -20 -20 -16 -20 -20 -20 -20 -20 -20 -20 -20
-18 -0 13 26 -2 12 22 24 11 5 11 29 26 33 18 12 21 6 -16 11 5 -1 3 -4 -20 -18 -2 18 -11 -20 -20 -20 -20 -5 -0 12 -18 -20 -20 -20 -20 -20 -20
-19 5 17 -15 24 24 17 20 23 17 17 27 32 38 33 35 7 6 21 17 -6 12 9 9 2 23 11 4 -7 5 -20 -3 24 14 -12 -0 -18 -20 -20 -20 -20 -20 -20
4 13 -14 -14 34 34 30 31 23 28 33 27 33 35 36 34 24 29 9 -17 -20 -0 -5 31 3 4 -2 9 10 27 34 26 24 27 17 -16 20 12 -20 -20 -20 -20 -20
-20 -20 0 29 32 37 30 29 37 24 34 32 34 33 31 29 21 32 27 -19 3 13 -10 18 13 13 6 5 11 39 36 48 29 29 22 23 23 11 9 -19 -20 -9 -11
-20 -3 19 25 25 26 36 36 31 25 34 35 36 26 29 31 33 33 32 25 21 19 22 20 24 20 23 32 26 29 25 26 37 36 29 24 31 33 34 22 4 -20 -20
16 29 37 19 25 25 35 34 31 34 39 37 34 36 37 37 35 35 31 26 30 31 24 20 31 29 28 29 33 32 35 29 28 29 36 35 33 18 12 15 8 -4 -12
29 32 37 21 14 24 27 22 23 30 27 33 36 36 31 19 15 27 21 11 11 16 3 9 19 29 32 30 30 33 28 16 22 17 18 18 8 12 7 -3 -5 -1 2
39 25 34 25 7 35 22 12 5 14 15 18 15 28 17 29 30 19 10 2 7 8 8 -5 6 20 17 31 34 28 25 4 8 10 14 13 10 14 12 5 2 -2 -2
-1 16 24 31 9 12 23 -7 -5 5 6 5 11 12 0 5 16 17 6 5 -4 3 34 37 18 7 1 4 23 24 18 17 19 5 -7 -2 2 -0 -4 -0 -1 -12 -14
26 14 18 33 29 12 10 -18 -20 -14 1 -2 2 1 -1 -20 -15 -9 -19 -7 -17 -20 -20 -1 7 2 6 7 5 19 18 -20 -20 -20 -20 -20 -20 -20 -20 -20 -20 -20 -20
21 34 18 2 -11 15 5 -20 -20 -20 -20 -20 -8 -3 -12 -20 -20 -20 -20 -19 -20 -20 -20 -7 6 14 21 3 -12 27 -20 -20 -20 -20 -20 -20 -20 -20 -20 -20 -20 -20 -20
6 -20 -20 -11 -20 -20 -20 -20 -20 -20 -20 -20 -20 -20 -20 -20 -20 -20 -20 -20 -20 -20 -20 -20 -20 -20 -15 -4 -20 -20 -20 -20 -20 -20 -20 -20 -20 -20 -20 -20 -20 -20 -20
-20 -20 -20 -20 -20 -20 -20 -20 -20 -20 -20 -20 -20 -20 -20 -20 -20 -20 -20 -20 -20 -20 -20 -20 -20 -20 -20 -13 -10 -20 -20 -20 -20 -20 -20 -20 -20 -20 -20 -20 -20 -20 -17
-20 -20 -20 -20 -20 -20 -20 -20 -20 -20 -20 -20 -20 -20 -20 -20 -20 -20 -20 -20 -20 -20 -20 -20 -20 -20 -20 -20 -20 -20 -20 -20 -13 -20 -20 -20 -20 -20 -20 -20 -20 -20 -20
-20 -20 -20 -20 -20 -20 -20 -20 -20 -20 -20 -20 -20 -20 -20 -20 -20 -20 -20 -20 -20 -20 -20 -20 -20 -20 -20 -20 -3 -13 -20 -20 -20 -20 -20 -20 -20 -20 -20 -20 -20 -20 -5
-20 -20 -20 -20 -20 -20 -20 -20 -20 -20 -20 -20 -20 -20 -20 -20 -20 -20 -20 -20 -20 -20 -20 -20 -20 -20 -20 -20 -20 -20 -20 -20 -20 -20 -20 -20 -20 -20 -20 -20 -20 -20 -20
-20 -20 -20 -20 -20 -20 -20 -20 -20 -20 -20 -20 -20 -20 -20 -20 -20 -20 -20 -20 -20 -20 -20 -20 -20 -20 -20 -20 -20 -20 -20 -20 -20 -20 -20 -20 -20 -20 -20 -20 -20 -20 -20
-20 -20 -20 -20 -20 -20 -20 -20 -20 -20 -20 -20 -20 -20 -20 -20 -20 -20 -20 -20 -20 -20 -20 -20 -20 -20 -20 -20 -20 -20 -20 -20 -20 -20 -20 -20 -20 -20 -20 -20 -20 -20 -20
-20 -20 -20 -20 -20 -20 -20 -20 -20 -20 -20 -20 -20 -20 -20 -20 -20 -20 -20 -20 -20 -20 -20 -20 -20 -20 -20 -20 -20 -20 -20 -20 -20 -20 -20 -20 -20 -20 -20 -20 -20 -20 -20
-20 -20 -20 -20 -20 -20 -20 -20 -20 -20 -20 -20 -20 -20 -20 -20 -20 -20 -20 -20 -20 -20 -20 -20 -20 -20 -20 -20 -20 -20 -20 -20 -20 -20 -20 -20 -2 -20 -20 -20 -20 -20 -20
-20 -20 -20 -20 -20 -20 -20 -20 -20 -20 -20 -20 -20 -20 -20 -20 -20 -20 -20 -20 -20 -20 -20 -20 -20 -20 -20 -20 -20 -9 -20 -20 -20 -20 -20 -20 -15 3 -20 -13 -10 -20 -20
-20 -20 -20 -20 -20 -20 -20 -20 -20 -20 -20 -20 -20 -20 -20 -20 -20 -20 -20 -20 -20 -20 9 10 -20 -20 -20 -16 -7 -20 1 -20 -20 -20 -20 -20 -20 4 -19 9 3 -20 -20
-20 -20 -20 -20 -20 -20 -20 -20 -20 -20 -20 -20 -20 -20 -20 -20 -20 -20 -20 -20 -20 -20 -20 -8 -6 -18 -8 -0 24 24 16 8 -14 -20 -20 -20 -20 -20 -20 -1 -7 -20 -20
-20 -20 -20 -20 -20 -20 -20 -20 -20 -20 -20 -20 -20 -20 -20 -20 -20 -20 -20 -20 -20 -5 -13 -17 -7 0 1 5 32 32 28 20 7 15 19 5 -20 -20 -20 -20 -20 -20 -20
-20 -20 -20 -20 -20 -20 -20 -20 -20 -20 -20 -20 -20 -20 -20 -20 -20 -20 -20 -20 -20 -2 10 11 20 -4 4 16 23 35 25 30 20 10 -20 -18 -20 -20 -20 -20 -20 -20 -20
Wind_Speed
2 3 8 12 10 9 8 10 14 12 8 9 8 8 7 7 7 7 8 6 7 9 9 6 7 6 5 9 8 8 8 6 6 5 5 4 7 6 5 3 2 1 2
2 5 10 10 8 5 3 7 7 8 11 10 9 9 9 5 5 5 7 8 7 8 5 6 7 4 5 7 7 9 7 7 8 5 4 4 5 4 4 4 2 2 1
3 5 9 9 5 8 7 3 3 5 6 5 1 2 1 5 4 5 4 4 5 6 5 7 6 4 1 2 6 7 11 7 6 8 4 3 3 5 5 3 1 2 2
2 3 9 8 9 2 7 4 4 4 7 5 5 5 4 5 5 6 3 3 4 3 5 4 5 4 4 6 6 6 7 4 8 3 5 5 5 1 2 3 3 2 3
4 1 4 7 12 7 4 5 5 2 4 7 8 8 5 0 2 1 3 3 3 3 2 5 7 7 5 4 5 7 7 2 2 2 2 4 4 4 2 5 2 2 3
7 7 3 6 5 2 3 4 5 5 7 7 10 8 4 6 4 8 6 3 2 2 5 4 7 7 7 4 5 6 5 5 4 3 3 4 4 3 3 4 4 4 1
11 5 2 7 7 3 1 6 7 7 12 14 14 12 12 10 11 10 7 2 7 4 8 10 9 6 8 10 8 8 8 7 7 8 4 3 6 5 3 3 3 3 1
6 8 8 9 5 5 4 3 5 4 0 4 1 14 14 11 12 12 9 9 9 7 11 11 12 11 11 10 9 6 5 6 5 6 7 5 4 3 2 2 3 2 4
7 12 10 9 9 7 7 6 5 6 4 3 4 2 1 10 8 7 10 8 9 9 11 12 12 10 10 11 11 7 7 6 6 5 6 3 3 3 2 2 3 3 2
11 11 11 9 7 7 6 7 7 8 7 6 4 4 4 3 2 2 6 8 9 11 8 9 11 10 9 8 8 5 5 7 5 5 6 6 5 4 3 4 3 3 4
7 10 9 7 6 7 7 7 10 10 10 7 7 7 4 4 2 3 4 4 6 8 6 8 9 9 9 9 9 9 10 11 9 7 6 6 5 4 4 3 3 3 3
9 8 8 8 6 7 7 10 10 10 9 9 6 6 5 4 3 2 3 4 5 5 6 4 5 6 8 9 10 10 10 11 10 9 7 7 5 5 5 4 6 4 5
10 9 8 8 7 6 8 9 10 10 9 8 8 7 5 5 4 4 4 3 4 4 4 5 6 6 7 8 8 8 7 6 7 7 7 7 7 6 4 4 3 3 3
8 7 6 7 7 7 8 9 9 9 9 9 8 7 7 7 5 5 3 3 3 3 4 5 5 5 6 6 5 6 6 5 5 5 4 4 5 6 5 5 6 4 4
7 6 7 6 7 9 8 8 7 7 9 8 8 8 8 8 7 5 4 4 3 3 3 4 4 4 5 4 5 5 6 6 5 4 4 3 3 4 3 4 4 3 3
5 6 7 7 8 8 8 8 8 8 7 7 7 8 8 9 8 7 6 5 5 5 5 5 6 7 4 7 9 8 7 6 7 7 6 5 4 3 4 3 1 3 5
6 7 7 8 8 8 8 9 9 9 9 9 8 8 8 8 8 9 8 8 7 6 6 7 7 7 6 10 9 7 5 5 5 5 4 4 4 4 5 5 5 3 1
8 9 9 9 9 8 6 7 8 8 8 8 9 9 10 10 10 10 8 8 7 7 6 6 7 7 6 14 14 10 3 5 4 4 3 5 5 5 7 5 4 3 3
6 6 6 6 8 9 11 12 10 8 8 9 10 11 11 12 12 11 10 9 8 7 7 6 6 7 6 15 15 12 6 5 5 5 7 6 7 9 11 6 5 4 3
4 5 5 5 5 5 7 9 10 11 11 11 10 10 10 9 10 11 12 10 9 9 6 5 5 7 7 13 15 13 6 6 4 6 8 11 8 12 14 6 6 5 6
7 6 6 6 6 5 7 8 8 8 9 11 12 12 11 11 10 10 9 7 7 8 8 7 5 7 8 9 18 18 8 7 6 5 5 5 14 13 17 13 6 5 5
7 7 7 8 7 7 7 8 8 8 9 9 11 11 10 8 7 10 9 7 5 7 7 8 7 6 8 12 17 19 15 13 8 7 5 5 15 17 16 13 9 8 7
8 8 8 10 9 9 8 10 10 10 10 10 11 11 11 10 9 10 9 7 6 5 6 6 7 6 6 7 15 21 21 17 9 6 8 11 14 17 13 14 13 12 4
8 9 10 11 11 10 10 11 11 10 10 11 11 10 10 10 10 7 6 8 5 5 5 5 6 6 6 7 7 8 11 18 13 13 5 7 10 12 10 10 10 6 6
9 9 10 11 13 12 12 12 11 10 10 11 10 10 8 9 10 8 7 7 9 8 6 6 7 7 7 9 14 12 9 8 11 10 6 5 6 7 7 7 7 7 5
10 11 11 12 12 12 12 13 12 11 11 11 8 8 7 7 7 8 8 10 16 20 18 17 15 8 16 14 19 22 22 21 19 7 7 8 8 9 9 8 8 9 10
Wind_Direction
322 333 150 212 189 205 238 206 198 185 171 186 205 200 200 181 184 184 194 202 216 204 215 219 229 222 200 219 225 218 222 212 239 213 219 255 248 230 234 240 248 230 240
193 172 113 99 37 332 301 231 182 180 176 200 201 196 189 174 175 166 181 191 201 212 231 227 236 218 216 242 246 222 215 213 213 205 218 208 243 190 232 183 223 295 354
199 210 169 135 88 353 329 261 232 156 166 187 231 305 328 153 152 165 175 178 195 234 226 227 231 252 35 256 295 277 220 214 213 206 211 210 221 150 177 171 198 248 248
58 190 197 173 118 233 289 238 302 180 188 189 207 201 166 210 230 165 92 146 165 224 222 256 229 199 203 235 250 270 302 268 218 209 238 313 331 179 191 143 188 212 271
79 113 215 146 154 184 274 319 261 310 256 209 222 213 202 241 15 128 199 187 170 205 149 217 226 206 197 207 202 224 223 237 192 120 74 64 19 2 334 287 229 187 250
96 17 6 162 129 19 295 310 289 279 265 245 232 240 206 182 223 217 218 184 210 157 160 231 213 204 207 157 184 179 172 148 161 151 157 131 160 171 210 235 262 264 231
79 76 52 92 100 86 259 226 229 250 256 251 220 211 216 216 234 248 233 106 226 181 223 209 212 206 214 165 199 176 191 181 179 169 188 167 208 204 201 229 246 245 7
98 87 50 59 30 64 2 19 116 103 78 328 34 207 198 210 217 220 221 225 221 212 216 208 215 204 208 176 191 184 199 186 186 189 197 193 194 169 197 196 211 232 218
126 92 64 54 50 35 43 33 82 86 60 22 86 74 228 227 212 210 215 219 225 227 221 211 213 204 199 193 183 179 195 198 195 194 180 158 137 152 185 233 209 206 218
79 71 68 26 41 43 41 48 52 63 49 39 42 47 34 33 325 260 232 220 231 230 230 208 208 202 185 181 185 177 170 182 181 176 167 158 161 165 180 196 207 231 234
83 92 93 73 35 41 36 43 50 42 35 23 25 30 26 9 357 286 259 251 264 242 219 208 198 183 173 175 181 186 184 185 171 173 179 173 166 178 186 190 206 214 232
99 86 86 86 78 58 37 44 43 40 29 16 16 21 9 1 340 308 289 277 244 239 238 213 194 177 185 185 190 194 187 182 173 173 176 184 170 211 198 196 187 206 222
86 86 90 84 68 57 48 34 29 23 18 10 16 11 5 355 347 320 313 285 267 248 220 203 195 191 189 188 187 178 184 176 168 173 174 178 170 202 198 198 197 206 224
88 79 63 53 52 42 37 27 22 9 1 358 360 360 354 341 332 310 296 295 273 237 229 220 193 165 168 187 162 165 166 170 159 138 173 180 188 198 201 203 213 189 175
99 76 51 36 34 32 26 16 10 360 348 346 346 345 336 339 323 301 285 264 253 230 208 193 180 163 161 158 163 154 158 164 156 155 182 187 210 93 55 194 204 176 195
70 60 49 32 22 19 9 5 356 354 347 339 338 338 331 333 327 314 292 271 245 222 204 196 186 177 176 172 183 169 165 167 180 182 180 151 136 170 173 158 97 204 191
31 21 16 16 9 7 2 355 344 341 344 343 342 339 336 328 323 316 295 275 257 226 219 202 197 195 185 172 182 183 175 165 173 158 161 179 177 187 170 166 165 137 132
15 8 360 357 360 359 352 334 334 328 334 331 334 336 338 332 327 318 304 284 268 259 232 222 207 196 193 176 184 177 174 138 112 129 163 170 160 185 177 140 134 157 180
355 354 353 344 333 334 339 336 336 343 336 341 341 336 330 327 325 318 313 305 278 251 242 236 219 206 189 177 180 169 152 145 170 186 205 201 191 187 176 158 156 202 150
341 334 327 306 292 308 325 321 321 328 330 336 332 323 319 309 315 314 312 308 298 274 254 234 238 221 210 184 186 174 169 169 168 206 219 215 213 189 187 174 180 193 187
335 325 305 307 312 316 323 309 313 312 327 319 321 317 324 328 312 306 307 303 291 284 264 246 224 221 211 197 196 189 182 174 171 203 197 196 215 201 196 189 197 187 166
309 310 311 311 315 309 316 309 308 318 312 308 304 306 307 301 299 305 311 305 250 266 257 250 236 231 225 222 203 200 199 186 183 187 199 199 203 205 200 192 201 164 179
301 303 300 307 308 306 297 298 303 311 309 306 306 306 311 311 318 312 303 306 304 276 265 246 237 221 228 218 212 208 202 195 188 180 195 195 189 201 197 201 192 182 190
300 308 305 301 299 301 295 290 297 300 299 299 303 308 308 309 308 311 317 303 289 278 263 248 239 241 216 216 189 202 208 203 192 187 179 173 186 196 179 200 186 179 195
301 299 296 295 293 298 295 294 294 293 292 293 296 298 299 307 306 299 296 296 302 289 280 263 243 231 222 214 205 198 199 201 192 159 147 170 181 185 190 193 179 193 196
292 288 286 287 286 288 288 288 287 285 285 285 287 289 298 294 294 294 299 304 305 304 298 286 264 251 245 240 216 209 203 201 187 164 168 181 186 191 189 190 192 196 192